Home   Weather   Erding   Past weeks

Flag for Germany Past Weather in Erding, Bavaria, Germany — Yesterday and Last 2 Weeks

Now
63 °F

Clear.


Feels Like: 63 °F
Forecast: 51 / 67 °F
Wind: 2 mph from North

Location: Munich / Franz Josef Strauss Airport

Current Time: Aug 19, 2017 at 9:02:26 pm

Latest Report: Aug 19, 2017 at 8:20 pm


Visibility: 10 mi

Pressure: 30.15 "Hg

Humidity: 68%

Dew Point: 52 °F

Location of ErdingLocation

Past Weather in Erding — Graph

°F

Erding Temperature Yesterday

Maximum temperature yesterday: 84 °F (at 1:50 pm)
Minimum temperature yesterday: 61 °F (at 2:50 am)
Average temperature yesterday: 71 °F

High & Low Weather Summary for the Past Weeks

 TemperatureHumidityPressure
High86 °F (Aug 15, 4:20 pm)100% (Aug 7, 12:20 am)30.24 "Hg (Aug 7, 12:20 am)
Low48 °F (Aug 7, 5:20 am)38% (Aug 15, 5:20 pm)29.83 "Hg (Aug 18, 8:20 pm)
Average65 °F78%30.09 "Hg
* Reported Aug 4 8:20 pm — Aug 19 8:20 pm, Erding. Weather by CustomWeather, © 2017

Note: Actual official high and low records may vary slightly from our data, if they occured in-between our weather recording intervals... More about our weather records

Advertising

Erding Weather History for the Previous 24 Hours

Scroll right to see more
 ConditionsComfort  
Time TempWeatherWind HumidityBarometerVisibility
8:20 pm
Sat, Aug 19
63 °FClear.2 mph68%30.15 "Hg10 mi
7:50 pm64 °FSunny.1 mph68%30.15 "Hg10 mi
7:20 pm68 °FSunny.2 mph53%30.12 "Hg10 mi
6:50 pm66 °FSunny.1 mph60%30.15 "Hg10 mi
6:20 pm66 °FScattered clouds.2 mph56%30.15 "HgN/A
5:50 pm66 °FScattered clouds.3 mph60%30.15 "HgN/A
5:20 pm66 °FScattered clouds.6 mph60%30.15 "HgN/A
4:50 pm66 °FBroken clouds.9 mph64%30.15 "HgN/A
4:20 pm66 °FBroken clouds.6 mph56%30.15 "HgN/A
3:50 pm66 °FPartly sunny.2 mph64%30.15 "HgN/A
3:20 pm64 °FScattered clouds.3 mph73%30.15 "HgN/A
2:50 pm63 °FScattered clouds.3 mph83%30.15 "HgN/A
2:20 pm64 °FPartly sunny.5 mph78%30.15 "HgN/A
1:50 pm63 °FPartly sunny.2 mph77%30.15 "HgN/A
1:20 pm61 °FSprinkles. Broken clouds.1 mph88%30.12 "HgN/A
1:01 pm59 °FRain showers. Broken clouds.3 mph94%30.15 "HgN/A
12:50 pm59 °FRain. Broken clouds.8 mph88%30.15 "Hg5 mi
12:33 pm61 °FRain showers. Partly sunny.3 mph88%30.15 "Hg6 mi
12:20 pm61 °FRain showers. Partly sunny.5 mph88%30.15 "HgN/A
11:50 am61 °FSprinkles. Broken clouds.3 mph88%30.15 "HgN/A
11:20 am61 °FScattered showers. Broken clouds.6 mph88%30.12 "HgN/A
10:50 am61 °FSprinkles. Broken clouds.5 mph94%30.15 "HgN/A
10:20 am61 °FScattered showers. Partly sunny.3 mph88%30.15 "HgN/A
9:50 am63 °FScattered showers. Broken clouds.3 mph83%30.15 "HgN/A
9:20 am63 °FScattered showers. Broken clouds.3 mph77%30.12 "HgN/A
8:50 am61 °FScattered showers. Broken clouds.5 mph83%30.12 "HgN/A
8:20 am63 °FScattered showers. Broken clouds.5 mph83%30.09 "HgN/A
7:50 am63 °FBroken clouds.7 mph83%30.09 "HgN/A
7:20 am61 °FBroken clouds.5 mph94%30.09 "HgN/A
6:50 am61 °FBroken clouds.6 mph94%30.09 "HgN/A
6:20 am61 °FBroken clouds.7 mph94%30.09 "HgN/A
5:50 am61 °FLight rain. Partly cloudy.6 mph94%30.09 "HgN/A
5:20 am61 °FLight rain. Passing clouds.5 mph94%30.09 "HgN/A
4:50 am61 °FPartly cloudy.5 mph94%30.07 "HgN/A
4:20 am59 °FLight rain. Partly cloudy.2 mph94%30.07 "HgN/A
3:50 am61 °FPartly cloudy.No wind88%30.07 "HgN/A
3:20 am61 °FPassing clouds.1 mph88%30.07 "HgN/A
2:50 am61 °FPassing clouds.3 mph88%30.07 "HgN/A
2:20 am61 °FPartly cloudy.7 mph88%30.09 "HgN/A
1:50 am61 °FClear.6 mph88%30.09 "Hg10 mi
1:20 am61 °FPartly cloudy.8 mph88%30.09 "HgN/A
12:50 am61 °FPartly cloudy.6 mph94%30.09 "HgN/A
12:20 am61 °FLight rain. Partly cloudy.8 mph94%30.07 "HgN/A
11:50 pm
Fri, Aug 18
61 °FSprinkles. Partly cloudy.12 mph94%30.07 "HgN/A
11:30 pm61 °FSprinkles. Passing clouds.9 mph94%30.07 "HgN/A
11:20 pm61 °FRain showers. Partly cloudy.8 mph94%30.07 "HgN/A
10:50 pm61 °FRain showers. Partly cloudy.8 mph94%30.07 "Hg5 mi
10:28 pm61 °FRain showers. Partly cloudy.10 mph94%30.07 "Hg5 mi
9:53 pm61 °FThunderstorms. Passing clouds.14 mph94%30.07 "Hg2 mi
9:34 pm61 °FStrong thunderstorms. Passing clouds.35 mph94%30.04 "Hg1 mi
9:20 pm70 °FScattered showers. Partly cloudy.26 mph73%29.98 "HgN/A
Weather by CustomWeather, © 2017

See weather overviewHow to use our weather pages